Location: Unspecified
(0.0000°N, 0.0000°E)
Time: 01:58:18
(UTC+00:00)

USA 179 - Visible Passes

Search period start: 26 March 2019 00:00
Search period end: 05 April 2019 00:00
Orbit: 1315 x 39039 km, 63.3° (Epoch: 14 February)

Date Brightness Start Highest point End Pass type
(mag) Time Alt. Az. Time Alt. Az. Time Alt. Az.
26 Mar ? 02:07:10 74° SSE 02:11:07 81° ESE 13:21:31 10° SE visible
27 Mar ? 02:03:30 76° SSE 02:06:40 81° ESE 13:17:04 10° SE visible
28 Mar ? 01:59:49 78° SE 02:02:14 81° ESE 13:12:38 10° SE visible
29 Mar ? 01:56:08 79° SE 01:57:47 81° ESE 13:08:11 10° SE visible
30 Mar ? 01:52:24 80° ESE 01:53:20 81° ESE 13:03:44 10° SE visible
31 Mar ? 01:48:39 81° ESE 01:48:54 81° ESE 12:59:17 10° SE visible
01 Apr ? 01:44:53 81° E 01:44:53 81° E 12:54:51 10° SE visible
02 Apr ? 01:41:05 80° E 01:41:05 80° E 12:50:24 10° SE visible
03 Apr ? 01:37:17 80° ENE 01:37:17 80° ENE 12:45:58 10° SE visible
04 Apr ? 01:33:26 79° ENE 01:33:26 79° ENE 12:41:31 10° SE visible
